TECHEDSAT 10 (45917 NORAD) Tracking and Keplerian Element Data

This shows tracking and keplerian element data for the satellite.

Feedback or suggestion? Click here.




ElementValue
Catalog45917
NameTECHEDSAT 10
Epoch Orbit454
Epoch Day224.85082951
Epoch Year2020
RAAN72.6801
Inclination51.6418
Eccentricity0.0004189
Argument of Perigee180.7763
Mean Anonmoly179.3221
Mean Motion15.51328128
Decay Rate0.00020549
L11 45917U 98067RQ 20224.85082951 .00020549 00000-0 35023-3 0 9990
L22 45917 51.6418 72.6801 0004189 180.7763 179.3221 15.51328128 4545

Live tracking and technical data element details for TECHEDSAT 10 (NORAD 45917). TECHEDSAT 10 can be tracked NOW for your location showing map with azimuth and elevation plus other details from your city location.

Track the satellite on the map from your city or location and see movement details for azimuth, elevation, latitude, longitude, range, height, and movement on the map or in text.







IsCatalogInMostPopularTable: catalog: 45917, numindb: 2
Update: records affected: 1



GetName: 45917 TECHEDSAT 10

Hit Count: updated at: Fri, 14 Aug 2020 04:57:36 GMT